{"data":{"norad_id":55297,"epoch":"2026-05-25T03:34:25.239072Z","epoch_age_seconds":62484,"freshness":"FRESH","line1":"1 55297U 23010AE  26145.14890323  .00000213  00000+0  25655-4 0  9994","line2":"2 55297  69.9987 191.6073 0003719 267.8164  92.2569 14.98330259184728","mean_motion":14.98330259,"eccentricity":0.0003719,"inclination_deg":69.9987,"raan_deg":191.6073,"arg_perigee_deg":267.8164,"mean_anomaly_deg":92.2569,"bstar":2.5655e-5,"rev_number":18472,"period_min":96.106982512725,"perigee_km":569.47031357012,"apogee_km":574.63986644667,"semimajor_km":6950.1920900084,"source":"CELESTRAK","updated_at":"2026-05-25T13:38:17.753481Z"}}